GFSNIL_925_temp_105.txt.gz
Temp
20 21 20 19 19 19 17 16 15 15 15 13 13 13 13 12 13 13 13 14 14 15
20 20 20 19 19 19 18 16 15 15 15 14 13 13 12 12 12 12 12 12 13 13
19 19 19 18 18 18 16 15 14 14 14 14 13 13 12 12 11 11 11 12 12 12
18 19 19 18 17 16 14 15 14 13 13 12 12 12 12 12 12 12 11 11 11 11
18 18 18 17 17 16 14 14 14 14 12 12 12 12 12 12 12 11 11 11 11 11
17 17 17 17 16 14 14 14 14 14 13 13 12 11 12 11 11 11 11 11 10 10
15 16 17 17 15 14 14 14 14 14 13 12 12 13 13 13 12 12 12 12 11 11
14 15 16 16 15 14 14 13 13 13 13 12 12 13 13 13 12 13 13 12 12 12
13 14 14 14 14 13 13 14 13 13 13 14 14 13 13 13 14 13 13 14 14 14
8 9 11 12 13 13 13 13 13 13 13 13 10 12 12 12 12 13 13 13 13 13
4 5 5 6 7 8 9 10 10 9 10 8 7 9 11 12 11 12 10 10 9 10
2 2 3 2 2 2 4 4 4 4 4 4 4 6 9 10 10 8 7 6 6 6
1 1 1 1 0 -0 1 -1 -1 -1 -0 -0 1 3 5 6 6 5 2 1 1 2
0 1 1 1 0 0 -0 -0 -0 -1 -2 -2 -2 -2 1 2 3 0 -1 -2 -3 -3

GFSNIL_925_temp_108.txt.gz
Temp
22 20 21 20 18 17 16 16 16 16 15 15 13 13 13 12 13 13 13 13 13 14
21 20 21 20 19 19 17 16 16 16 15 14 13 13 13 12 12 13 13 13 13 14
20 20 21 19 19 19 17 17 16 16 15 14 13 13 13 13 12 12 12 12 12 13
20 20 20 19 19 19 17 16 15 15 15 15 14 13 13 13 12 12 12 12 12 12
18 19 19 18 18 16 15 15 15 14 14 13 13 13 12 12 12 12 12 12 12 12
17 17 18 18 17 16 15 15 14 14 13 12 12 12 12 12 12 12 12 12 11 11
15 17 17 17 16 15 15 14 14 14 13 13 13 12 12 12 12 12 11 11 11 11
15 15 16 16 16 15 14 14 14 14 13 13 13 12 12 12 12 12 12 12 12 12
12 14 14 14 14 14 13 13 13 13 13 13 12 12 12 12 13 13 12 12 13 13
5 7 11 13 13 13 13 13 13 13 12 10 9 11 12 13 12 12 12 12 11 11
2 3 3 6 8 9 10 8 7 7 7 8 8 11 12 12 12 11 10 10 9 9
1 1 1 0 1 2 3 3 1 1 1 2 3 6 9 10 9 8 6 5 5 6
0 0 -0 0 -0 -1 0 -0 0 -0 -1 -1 1 3 5 7 6 3 0 0 0 1
-0 -0 0 0 -0 -1 0 -0 -1 -1 -1 -1 -1 -0 1 2 2 -0 -1 -2 -3 -3

GFSNIL_925_temp_111.txt.gz
Temp
19 19 18 18 16 16 16 15 16 16 16 15 15 13 12 12 12 13 13 13 13 13
20 20 18 18 17 16 17 16 16 16 15 16 15 14 12 12 12 13 13 13 13 12
20 21 19 19 18 17 17 16 16 16 15 15 14 14 12 13 12 13 13 13 13 13
19 21 19 20 18 18 17 17 16 15 15 15 13 14 13 12 12 12 12 12 13 13
19 20 19 19 19 18 17 16 16 16 15 14 13 13 13 13 12 12 12 12 12 12
17 19 19 18 18 17 16 15 15 15 15 15 13 13 13 13 12 12 12 12 12 12
14 15 17 17 16 15 15 14 14 15 15 14 13 13 13 12 12 12 12 12 12 12
10 14 15 15 15 15 14 14 14 14 13 13 13 12 12 12 12 12 12 12 12 12
5 7 11 14 13 14 14 14 13 13 13 12 12 12 12 12 12 12 12 12 12 12
2 2 2 6 11 12 12 13 12 12 12 11 11 11 12 12 12 12 11 11 11 11
1 1 1 1 1 4 6 7 8 7 7 8 7 9 11 11 11 10 10 9 10 9
0 0 0 0 -0 -1 0 -0 -0 1 3 3 5 6 8 11 10 8 6 6 6 6
0 0 -0 -0 0 -0 -1 -1 -2 -2 -1 -0 1 3 6 7 5 3 1 1 2 3
-1 -1 -1 -1 1 0 -1 -0 -2 -2 -3 -2 -1 -1 1 3 2 -0 -2 -2 -2 -2

GFSNIL_925_temp_114.txt.gz
Temp
18 17 17 17 16 16 16 16 16 16 16 16 15 15 14 12 12 12 12 13 13 13
17 17 17 17 17 16 16 16 16 16 15 15 15 16 14 12 11 12 13 13 13 12
17 17 17 17 17 17 17 16 16 15 15 15 15 16 14 12 12 12 12 13 12 12
17 17 17 17 18 17 17 17 16 15 14 14 14 14 13 13 12 12 12 12 12 12
16 16 16 16 17 16 16 16 17 16 14 13 14 13 13 12 12 12 12 12 12 12
12 14 15 16 17 15 15 15 16 15 14 14 13 13 13 13 12 12 12 12 12 12
6 11 14 15 16 15 15 15 15 15 15 15 15 14 13 13 12 12 12 12 12 12
4 6 12 13 14 14 14 15 15 15 15 14 15 13 13 13 12 12 12 12 12 12
2 3 4 8 12 13 14 14 14 14 14 13 12 12 12 12 12 12 12 12 12 12
1 2 2 2 4 6 9 11 12 12 12 11 11 12 12 12 12 12 12 11 11 11
-0 0 1 1 1 -0 1 2 2 4 5 5 6 9 12 12 11 11 11 10 11 11
-0 -1 -0 0 -0 1 0 -0 -1 -1 0 2 3 6 9 11 10 9 7 6 7 8
-2 -1 -1 -1 -1 -0 0 -1 0 -1 -0 -1 0 1 4 5 4 4 3 2 2 3
-3 -3 -3 -2 -0 -0 0 -0 -1 -1 -1 -1 -1 -0 1 2 1 -2 -3 -2 -1 -1

GFSNIL_925_temp_117.txt.gz
Temp
15 16 18 20 17 17 16 16 16 15 15 15 16 16 15 15 14 14 13 13 13 12
12 15 17 17 17 17 17 16 16 15 15 15 15 16 15 15 14 13 12 12 12 12
12 13 16 16 17 17 17 16 16 15 14 14 14 16 15 14 15 13 12 12 12 12
10 14 15 15 16 16 15 15 15 15 14 14 14 15 14 14 15 13 12 12 12 12
7 11 15 15 15 15 15 15 15 15 14 14 13 13 13 13 14 13 12 12 12 12
4 6 10 14 15 15 14 14 14 14 14 13 13 13 13 14 14 13 12 12 12 12
3 4 6 10 13 14 14 14 14 14 14 14 13 13 13 13 13 12 12 12 12 12
2 2 3 6 10 12 13 14 14 13 13 13 13 13 13 13 13 12 12 12 12 12
1 1 1 2 4 6 8 11 13 13 13 13 13 13 13 14 13 12 12 12 12 12
-1 0 0 1 1 2 1 2 5 7 10 9 10 12 12 12 12 12 12 12 12 12
-2 -1 -1 -0 -1 0 1 1 -0 1 1 3 5 9 11 12 12 12 11 11 11 11
-3 -2 -2 -2 -1 -1 -0 0 0 -0 2 0 2 4 7 10 9 9 8 8 8 9
-4 -4 -3 -2 -2 -2 -1 -0 0 -0 -1 -0 -0 0 2 4 3 1 -0 1 3 4
-4 -4 -4 -3 -2 -2 -2 -2 -2 -1 -2 -2 -1 -1 0 1 1 0 -1 -3 -2 -1

GFSNIL_925_temp_120.txt.gz
Temp
12 13 14 16 16 16 16 19 22 19 15 15 15 15 15 15 15 15 14 14 14 14
10 11 12 14 16 16 17 20 22 18 15 15 15 14 15 14 14 14 15 14 14 13
7 9 11 13 15 16 17 18 19 16 15 14 15 14 14 14 14 14 14 14 13 12
5 7 10 12 14 15 15 16 16 15 15 14 13 14 14 14 13 14 14 14 13 13
3 4 6 10 12 15 15 15 15 14 14 13 14 14 13 13 13 14 13 13 12 12
2 3 3 5 9 12 15 14 14 14 14 13 13 13 13 13 13 13 14 14 12 12
1 1 2 3 5 8 12 13 14 13 13 13 13 13 13 13 13 13 13 13 13 12
0 1 1 1 2 4 7 9 11 13 13 13 13 13 13 13 12 12 12 13 13 12
-1 -0 -0 -0 0 1 2 5 6 8 8 10 11 13 13 13 12 12 12 12 12 12
-2 -1 -1 -1 -1 -0 -0 1 3 3 3 2 3 6 12 12 13 12 12 12 12 12
-3 -3 -2 -1 -1 -1 -1 -1 -1 -0 1 1 1 4 7 10 12 12 12 11 11 12
-4 -4 -3 -3 -3 -2 -2 -2 -2 -3 -2 -1 0 1 3 6 5 7 6 6 7 9
-5 -5 -4 -4 -3 -3 -3 -3 -3 -3 -3 -4 -2 -0 0 2 2 -0 0 1 2 3
-6 -6 -5 -5 -4 -4 -3 -3 -3 -3 -3 -3 -4 -4 -3 -0 0 0 -2 -2 -2 -1

GFSNIL_925_temp_123.txt.gz
Temp
10 10 11 13 15 16 16 16 16 15 15 16 17 16 15 15 15 15 15 15 14 14
7 9 9 10 12 14 16 16 15 15 15 15 16 18 15 15 15 14 14 14 14 13
5 7 8 9 11 13 14 15 15 15 15 15 15 16 15 14 14 14 14 14 14 13
3 4 5 6 8 11 13 15 15 15 15 15 14 15 14 14 14 14 14 13 13 13
2 2 3 4 6 8 12 14 15 14 14 14 14 14 14 13 13 13 13 13 13 13
1 1 1 2 3 5 8 11 13 14 14 14 14 14 14 13 13 13 13 13 13 13
0 0 0 1 1 2 3 6 9 11 13 13 14 13 13 13 13 13 13 13 13 13
-1 -0 0 -0 0 0 1 1 2 5 7 9 9 7 10 12 13 12 12 12 12 13
-1 -2 -1 -1 -0 -1 -1 -1 0 0 1 1 2 5 7 9 12 12 12 12 12 12
-2 -2 -2 -2 -2 -1 -1 -2 -2 -2 -1 -1 -1 2 6 9 10 12 12 12 12 12
-4 -4 -3 -2 -2 -2 -2 -2 -3 -3 -3 -2 -2 0 2 5 7 8 8 8 10 11
-5 -5 -4 -4 -3 -3 -3 -3 -3 -3 -3 -3 -3 -0 1 1 3 2 0 2 3 5
-5 -5 -5 -4 -4 -4 -3 -3 -3 -3 -4 -4 -4 -4 -2 -0 -1 -1 0 -1 -1 -0
-6 -6 -5 -5 -5 -5 -4 -4 -4 -4 -4 -4 -4 -4 -4 -3 -2 -4 -4 -4 -4 -4

GFSNIL_925_temp_126.txt.gz
Temp
9 10 11 12 12 15 15 16 16 16 16 16 16 16 16 16 16 16 17 17 17 18
7 8 9 9 11 11 13 15 16 16 16 15 15 16 16 16 15 16 16 17 17 17
5 6 6 7 7 8 10 12 14 15 15 15 15 16 15 16 15 15 15 15 16 16
3 4 4 4 4 5 8 11 13 15 15 15 15 15 15 15 15 15 15 15 15 14
1 2 2 2 3 5 5 7 10 13 14 15 15 16 15 15 15 14 14 14 14 14
1 1 1 1 1 2 2 3 5 8 10 11 13 14 14 14 14 14 14 14 14 14
0 0 0 1 0 0 1 1 2 2 3 4 5 6 9 11 13 14 13 14 14 13
1 0 -0 -0 0 0 -0 -0 -0 -0 1 1 1 1 3 7 10 12 13 13 13 13
1 1 1 -0 -0 -0 -0 -1 -1 -1 -1 -1 -1 0 2 6 8 9 12 13 13 13
-0 0 1 1 0 -0 -1 -1 -2 -2 -1 -2 -3 -0 1 1 3 4 5 6 8 10
-2 -2 -1 -1 -1 -1 -1 -1 -2 -2 -3 -2 -3 -3 0 -0 0 1 0 1 1 3
-4 -3 -3 -3 -3 -2 -2 -2 -3 -3 -3 -4 -4 -4 -4 -2 -1 -2 -2 -3 -2 1
-4 -5 -4 -4 -4 -3 -3 -3 -3 -4 -4 -4 -4 -4 -4 -4 -4 -4 -4 -3 -3 -2
-5 -5 -5 -4 -4 -4 -4 -4 -4 -4 -4 -5 -5 -5 -5 -5 -5 -4 -4 -5 -5 -5

GFSNIL_925_temp_132.txt.gz
Temp
8 8 8 9 10 12 12 12 16 13 18 18 18 19 19 19 18 17 17 17 17 17
5 6 6 7 7 7 12 10 11 12 14 16 18 17 17 17 17 17 16 17 17 17
3 4 4 4 5 6 5 8 8 10 11 13 14 14 17 16 16 16 16 16 16 17
3 2 2 2 2 2 4 5 6 5 6 7 9 10 12 13 14 15 16 16 16 16
2 2 2 2 1 1 2 2 1 4 3 3 4 6 7 9 10 10 12 15 16 16
2 2 1 1 1 0 1 0 -0 1 -0 0 1 2 4 4 5 6 7 8 10 13
0 1 1 1 0 -0 -0 -0 -0 -1 -2 -2 -2 -1 1 2 3 4 4 4 6 5
-1 -0 0 0 -0 -1 -1 -1 -1 -1 -2 -3 -2 -2 -1 0 0 0 2 2 3 1
-1 -1 -1 -1 -1 -1 -1 -2 -2 -2 -2 -4 -3 -1 -0 -0 -1 -2 -2 -2 0 0
-2 -2 -2 -2 -2 -2 -2 -2 -3 -3 -3 -4 -4 -4 -2 -1 -1 -2 -3 -3 -3 -3
-3 -3 -2 -2 -2 -2 -2 -2 -3 -3 -4 -4 -5 -4 -4 -3 -3 -2 -3 -3 -4 -4
-3 -3 -3 -3 -3 -3 -3 -3 -3 -3 -4 -5 -5 -5 -5 -4 -4 -3 -3 -4 -4 -4
-3 -4 -4 -4 -4 -4 -4 -4 -4 -4 -5 -5 -6 -6 -5 -5 -5 -5 -4 -4 -4 -4
-2 -3 -4 -4 -5 -5 -4 -5 -5 -5 -5 -6 -7 -7 -6 -6 -6 -6 -5 -4 -4 -4

GFSNIL_925_temp_135.txt.gz
Temp
4 5 7 8 10 10 10 12 13 13 13 15 15 17 18 17 17 17 17 17 17 16
3 4 4 5 7 5 7 7 12 13 11 13 13 14 15 17 16 16 16 17 18 17
3 3 3 3 4 5 3 7 9 10 9 10 11 13 9 12 13 14 15 16 16 16
1 1 2 2 1 1 2 3 3 4 5 4 6 8 8 8 8 9 10 11 12 13
1 0 0 0 1 0 -0 -0 -0 1 4 1 2 3 4 4 5 5 5 5 6 6
-1 -0 -1 -1 -1 -1 -1 -2 -2 -1 -1 -1 0 1 2 3 3 2 1 2 2 2
-1 -1 -1 -1 -2 -2 -2 -2 -2 -3 -2 -2 -2 -1 -0 0 1 1 0 0 0 -1
-2 -2 -2 -2 -2 -3 -3 -3 -3 -4 -4 -3 -3 -2 -1 -1 -2 -2 -2 -2 -2 -2
-3 -2 -2 -2 -2 -3 -3 -4 -4 -4 -5 -4 -4 -3 -3 -2 -2 -3 -3 -3 -4 -3
-3 -3 -3 -3 -3 -3 -3 -4 -5 -5 -5 -5 -5 -5 -4 -4 -3 -3 -4 -4 -4 -4
-4 -4 -4 -4 -4 -4 -4 -4 -5 -6 -7 -6 -5 -5 -5 -5 -5 -4 -4 -4 -4 -4
-4 -5 -5 -5 -5 -5 -6 -5 -6 -7 -8 -8 -7 -6 -6 -6 -6 -5 -4 -4 -5 -4
-4 -5 -5 -6 -6 -6 -7 -7 -7 -7 -8 -8 -8 -7 -6 -6 -7 -6 -5 -5 -5 -5
-3 -4 -5 -6 -6 -7 -7 -8 -8 -9 -9 -9 -9 -9 -8 -7 -7 -7 -7 -6 -5 -5

GFSNIL_925_temp_138.txt.gz
Temp
2 3 4 4 5 7 9 9 9 14 13 12 15 14 15 16 17 17 17 17 17 16
-0 1 3 3 3 4 6 6 9 10 11 11 14 14 13 13 13 14 16 18 16 16
-1 -0 1 1 1 2 2 3 5 6 7 8 10 11 11 11 12 14 12 8 9 10
-2 -1 -1 -0 -1 -0 -0 0 2 1 2 4 5 4 4 4 5 6 10 10 3 3
-2 -2 -2 -1 -1 -2 -2 -1 -1 -0 1 0 1 2 1 1 1 2 2 2 2 1
-2 -2 -2 -3 -2 -3 -3 -3 -2 -2 -1 -1 -1 -0 1 -0 -1 -0 -0 -0 -1 -1
-2 -2 -2 -3 -4 -4 -4 -4 -3 -4 -3 -3 -2 -2 -2 -2 -2 -2 -3 -2 -2 -3
-3 -3 -3 -3 -4 -5 -5 -5 -5 -5 -4 -4 -4 -3 -3 -3 -3 -3 -3 -3 -3 -3
-4 -4 -4 -4 -4 -5 -6 -6 -6 -5 -5 -5 -5 -4 -4 -4 -4 -4 -4 -4 -4 -4
-5 -5 -5 -5 -5 -5 -7 -7 -8 -7 -6 -6 -5 -5 -5 -5 -4 -4 -5 -5 -5 -4
-5 -6 -6 -6 -7 -6 -7 -8 -8 -8 -8 -7 -6 -6 -6 -6 -6 -5 -5 -5 -5 -5
-6 -6 -7 -7 -7 -8 -8 -8 -9 -9 -9 -8 -7 -6 -6 -7 -6 -6 -6 -6 -6 -5
-5 -6 -7 -7 -8 -8 -9 -9 -9 -9 -9 -9 -8 -7 -6 -7 -7 -7 -8 -7 -7 -7
-5 -6 -7 -7 -8 -9 -9 -9 -9 -9 -9 -9 -9 -8 -7 -7 -8 -8 -8 -8 -9 -8

GFSNIL_925_temp_144.txt.gz
Temp
-2 -3 -2 -2 -2 -1 -1 0 2 3 5 9 11 12 13 14 14 15 15 15 15 14
-3 -3 -3 -3 -3 -2 -2 -1 1 2 4 6 8 11 12 12 13 13 14 15 13 11
-4 -4 -4 -4 -4 -4 -3 -2 -1 0 1 2 4 5 8 7 7 8 6 8 9 10
-4 -5 -5 -5 -5 -4 -4 -4 -3 -2 -1 -0 1 2 2 2 2 3 2 1 2 1
-5 -6 -6 -6 -6 -5 -4 -4 -4 -3 -3 -2 -1 -1 -1 -1 -1 -1 -0 -0 -1 0
-6 -6 -7 -7 -6 -6 -5 -5 -4 -4 -4 -4 -3 -2 -2 -2 -2 -3 -3 -2 -2 -2
-6 -6 -7 -7 -7 -7 -6 -6 -5 -5 -5 -4 -4 -4 -4 -3 -3 -4 -4 -4 -4 -3
-7 -7 -7 -8 -8 -8 -7 -7 -6 -6 -6 -5 -5 -5 -5 -5 -5 -5 -5 -5 -5 -5
-7 -8 -8 -8 -8 -8 -8 -8 -7 -6 -7 -7 -6 -5 -6 -6 -6 -6 -6 -6 -6 -6
-7 -8 -8 -8 -8 -9 -9 -9 -8 -8 -7 -7 -7 -7 -6 -8 -8 -8 -7 -8 -7 -7
-7 -8 -8 -9 -9 -9 -9 -9 -9 -9 -8 -7 -7 -8 -8 -8 -9 -9 -9 -8 -8 -8
-7 -8 -8 -9 -9 -9 -9 -9 -9 -10 -9 -9 -8 -8 -9 -9 -10 -11 -11 -10 -9 -9
-7 -8 -8 -9 -9 -9 -10 -10 -10 -10 -10 -9 -9 -9 -9 -11 -11 -12 -12 -12 -12 -10
-7 -7 -8 -8 -9 -9 -10 -10 -10 -10 -11 -10 -10 -10 -10 -11 -12 -13 -13 -13 -13 -12

GFSNIL_925_temp_147.txt.gz
Temp
-3 -3 -3 -4 -3 -3 -3 -2 -1 -0 1 2 4 6 9 10 11 13 13 14 15 16
-4 -5 -5 -5 -4 -3 -3 -3 -2 -2 -1 0 2 4 6 10 11 11 12 14 14 14
-5 -5 -5 -5 -5 -4 -4 -3 -3 -3 -3 -1 -0 0 2 3 5 7 8 10 10 9
-5 -6 -6 -6 -6 -5 -5 -4 -4 -4 -4 -3 -3 -2 -1 0 1 1 2 3 5 3
-6 -6 -7 -7 -6 -6 -5 -5 -5 -4 -4 -4 -4 -4 -3 -2 -2 -2 -1 -0 0 0
-7 -7 -7 -7 -7 -7 -6 -6 -6 -5 -5 -5 -5 -5 -5 -5 -4 -4 -4 -3 -2 -1
-7 -7 -6 -7 -7 -7 -7 -6 -7 -6 -6 -6 -6 -6 -6 -6 -6 -5 -5 -5 -4 -4
-6 -7 -6 -7 -7 -7 -6 -7 -7 -7 -7 -7 -7 -7 -6 -6 -7 -6 -6 -6 -6 -5
-6 -6 -7 -6 -7 -7 -6 -6 -7 -7 -8 -8 -8 -8 -8 -8 -7 -7 -7 -6 -6 -6
-6 -6 -7 -7 -7 -7 -7 -7 -7 -7 -7 -8 -8 -8 -8 -9 -8 -8 -7 -7 -7 -7
-6 -7 -7 -7 -7 -7 -7 -8 -8 -8 -7 -8 -9 -9 -8 -8 -9 -9 -9 -9 -8 -8
-7 -7 -7 -8 -8 -8 -8 -8 -9 -9 -9 -8 -8 -9 -10 -8 -9 -10 -10 -10 -10 -9
-8 -8 -9 -9 -9 -8 -9 -9 -9 -10 -10 -10 -9 -10 -10 -10 -10 -11 -11 -12 -11 -11
-8 -8 -9 -9 -9 -9 -10 -10 -10 -10 -11 -11 -11 -10 -11 -12 -12 -12 -12 -12 -12 -13

GFSNIL_925_temp_150.txt.gz
Temp
-2 -2 -2 -3 -3 -3 -3 -2 -2 -2 -2 -1 -0 1 3 6 7 9 11 13 14 14
-2 -3 -3 -3 -4 -3 -3 -3 -3 -3 -3 -2 -2 -0 1 2 3 7 9 12 13 14
-3 -3 -3 -4 -4 -4 -4 -3 -3 -3 -4 -3 -3 -2 -1 -2 -1 1 3 4 6 8
-4 -4 -4 -5 -5 -5 -5 -5 -4 -4 -4 -4 -4 -4 -4 -3 -3 -2 -1 -1 0 1
-5 -5 -5 -5 -5 -5 -6 -5 -5 -5 -5 -5 -5 -5 -5 -5 -5 -4 -3 -3 -3 -2
-5 -5 -5 -6 -5 -5 -6 -6 -6 -6 -6 -6 -6 -6 -6 -5 -5 -5 -5 -4 -4 -4
-5 -3 -3 -5 -5 -4 -5 -6 -7 -7 -7 -7 -7 -6 -6 -6 -5 -6 -6 -6 -5 -5
-3 -4 -3 -3 -3 -3 -3 -4 -5 -7 -8 -7 -7 -7 -6 -6 -7 -6 -6 -6 -6 -5
-3 -3 -3 -3 -3 -3 -3 -3 -3 -4 -6 -8 -8 -8 -7 -7 -7 -7 -7 -7 -7 -7
-3 -3 -3 -3 -3 -3 -3 -4 -4 -4 -4 -6 -8 -7 -7 -6 -7 -8 -8 -8 -7 -7
-3 -3 -4 -4 -4 -4 -4 -5 -5 -5 -5 -6 -8 -8 -7 -6 -6 -7 -8 -9 -8 -8
-4 -4 -4 -5 -5 -5 -5 -6 -6 -7 -7 -7 -8 -9 -8 -6 -6 -7 -8 -9 -10 -9
-5 -6 -6 -6 -6 -6 -6 -6 -7 -8 -8 -9 -9 -10 -10 -8 -7 -8 -8 -9 -10 -11
-6 -7 -6 -6 -6 -7 -7 -7 -7 -7 -8 -9 -10 -10 -11 -11 -10 -9 -9 -10 -11 -12

GFSNIL_925_temp_153.txt.gz
Temp
-0 -0 -1 -1 -2 -2 -2 -3 -3 -3 -3 -3 -2 -1 0 1 2 4 5 8 9 11
-1 -1 -2 -2 -2 -3 -3 -3 -3 -4 -4 -4 -3 -3 -2 -1 -1 0 2 5 7 9
-2 -2 -3 -2 -3 -3 -3 -3 -3 -4 -4 -4 -4 -4 -3 -4 -2 -2 -2 -1 1 3
-3 -2 -3 -3 -3 -4 -4 -4 -4 -4 -4 -5 -5 -5 -4 -4 -4 -3 -3 -3 -2 -1
-4 -4 -4 -4 -4 -5 -5 -5 -5 -5 -5 -5 -5 -5 -5 -5 -5 -5 -4 -4 -4 -3
-2 -2 -2 -3 -3 -3 -4 -5 -6 -6 -6 -6 -6 -5 -5 -5 -5 -6 -5 -5 -5 -4
-2 -0 -0 -2 -2 -1 -2 -3 -5 -6 -6 -7 -6 -6 -6 -6 -6 -6 -6 -6 -5 -5
0 -1 0 -0 -1 -0 -1 -1 -2 -4 -6 -7 -6 -5 -6 -6 -7 -7 -7 -7 -6 -5
0 -0 -1 -1 -1 -1 -1 -1 -2 -2 -4 -6 -6 -5 -5 -6 -7 -8 -8 -8 -8 -7
0 -0 -0 -1 -1 -2 -2 -2 -3 -3 -4 -6 -7 -6 -5 -5 -7 -7 -8 -9 -9 -9
-0 -1 -1 -1 -1 -2 -3 -3 -4 -5 -5 -6 -8 -8 -5 -5 -5 -7 -8 -9 -9 -10
-2 -2 -2 -2 -3 -3 -3 -4 -5 -6 -7 -7 -8 -9 -8 -5 -5 -6 -8 -9 -10 -10
-3 -4 -5 -5 -4 -4 -4 -4 -5 -6 -7 -8 -8 -9 -10 -8 -6 -7 -7 -8 -10 -10
-4 -5 -4 -4 -4 -5 -5 -5 -5 -5 -6 -7 -8 -9 -9 -10 -9 -9 -8 -9 -10 -11